Location: M?digepalle
(16.1753°N, 80.3496°E)
Time: 08:08:37
(UTC+00:00)

CZ-2C R/B - Pass Details

Date: 29 October 2020
Orbit: 391 x 587 km, 35.0° (Epoch: 27 November)

Event Time Altitude Azimuth Distance (km) Brightness Sun altitude
Exits shadow 23:25:22 39° 227° (SW) 596 1.2 -17.2°
Maximum altitude 23:25:35 40° 215° (SW) 590 1.2 -17.2°
Drops below altitude 10° 23:28:37 10° 144° (SE) 1,425 4.1 -16.4°
Sets 23:30:49 0° 136° (SE) 2,298 5.4 -15.9°
